Weather reports worldwide

Advertisment
Ciudad Victoria, Mexico (76491): temperature & dewpoint: 03.12.2018 21:00:00 - 09.12.2018 21:00:00 (CST)Ciudad Victoria, Mexico (76491): wind speed: 03.12.2018 21:00:00 - 09.12.2018 21:00:00 (CST)Ciudad Victoria, Mexico (76491): wind direction: 03.12.2018 21:00:00 - 09.12.2018 21:00:00 (CST)Ciudad Victoria, Mexico (76491): reduced air pressure: 03.12.2018 21:00:00 - 09.12.2018 21:00:00 (CST)Ciudad Victoria, Mexico (76491): visibility: 03.12.2018 21:00:00 - 09.12.2018 21:00:00 (CST)
Date & Time tt [°C] td [°C] ff [km/h] ff [kn] dd ppp [hPa] vv [km]
09.12.2018 21:00:00 14,6 13,6 0 0 N 1029,6 6
09.12.2018 20:00:00 - - - - - - -
09.12.2018 19:00:00 - - - - - - -
09.12.2018 18:00:00 15,0 12,7 0 0 N 1027,6 10
09.12.2018 17:00:00 - - - - - - -
09.12.2018 16:00:00 - - - - - - -
09.12.2018 15:00:00 15,4 11,5 4 2 N 1027,4 10
09.12.2018 14:00:00 - - - - - - -
09.12.2018 13:00:00 - - - - - - -
09.12.2018 12:00:00 12,8 10,5 4 2 N 1030,3 10
09.12.2018 11:00:00 - - - - - - -
09.12.2018 10:00:00 - - - - - - -
09.12.2018 09:00:00 12,0 9,7 4 2 N 1029,4 10
09.12.2018 08:00:00 - - - - - - -
09.12.2018 07:00:00 - - - - - - -
09.12.2018 06:00:00 - - - - - - -
09.12.2018 05:00:00 - - - - - - -
09.12.2018 04:00:00 - - - - - - -
09.12.2018 03:00:00 - - - - - - -
09.12.2018 02:00:00 - - - - - - -
09.12.2018 01:00:00 - - - - - - -
09.12.2018 00:00:00 - - - - - - -
08.12.2018 23:00:00 - - - - - - -
08.12.2018 22:00:00 - - - - - - -
08.12.2018 21:00:00 - - - - - - -
08.12.2018 20:00:00 - - - - - - -
08.12.2018 19:00:00 - - - - - - -
08.12.2018 18:00:00 16,2 16,0 11 6 N 1021,7 10
08.12.2018 17:00:00 - - - - - - -
08.12.2018 16:00:00 - - - - - - -
08.12.2018 15:00:00 18,4 16,7 7 4 N 1020,0 10
08.12.2018 14:00:00 - - - - - - -
08.12.2018 13:00:00 - - - - - - -
08.12.2018 12:00:00 20,0 16,8 7 4 N 1021,3 10
08.12.2018 11:00:00 - - - - - - -
08.12.2018 10:00:00 - - - - - - -
08.12.2018 09:00:00 18,2 18,1 0 0 N 1020,9 10
08.12.2018 08:00:00 - - - - - - -
08.12.2018 07:00:00 - - - - - - -
08.12.2018 06:00:00 - - - - - - -
08.12.2018 05:00:00 - - - - - - -
08.12.2018 04:00:00 - - - - - - -
08.12.2018 03:00:00 - - - - - - -
08.12.2018 02:00:00 - - - - - - -
08.12.2018 01:00:00 - - - - - - -
08.12.2018 00:00:00 19,6 19,3 14 8 N 1019,1 6
07.12.2018 23:00:00 - - - - - - -
07.12.2018 22:00:00 - - - - - - -
07.12.2018 21:00:00 22,8 19,9 0 0 N 1016,7 6
07.12.2018 20:00:00 - - - - - - -
07.12.2018 19:00:00 - - - - - - -
07.12.2018 18:00:00 25,6 18,8 18 10 E 1014,6 10
07.12.2018 17:00:00 - - - - - - -
07.12.2018 16:00:00 - - - - - - -
07.12.2018 15:00:00 27,4 19,1 25 14 E 1015,6 10
07.12.2018 14:00:00 - - - - - - -
07.12.2018 13:00:00 - - - - - - -
07.12.2018 12:00:00 27,0 19,7 4 2 E 1019,4 10
07.12.2018 11:00:00 - - - - - - -
07.12.2018 10:00:00 - - - - - - -
07.12.2018 09:00:00 19,6 18,9 0 0 N 1021,9 10
07.12.2018 08:00:00 - - - - - - -
07.12.2018 07:00:00 - - - - - - -
07.12.2018 06:00:00 17,0 16,0 0 0 N 1020,8 6
07.12.2018 05:00:00 - - - - - - -
07.12.2018 04:00:00 - - - - - - -
07.12.2018 03:00:00 16,4 16,2 0 0 N 1020,7 6
07.12.2018 02:00:00 - - - - - - -
07.12.2018 01:00:00 - - - - - - -
07.12.2018 00:00:00 17,6 17,4 0 0 N 1021,5 6
06.12.2018 23:00:00 - - - - - - -
06.12.2018 22:00:00 - - - - - - -
06.12.2018 21:00:00 19,0 18,9 0 0 N 1020,9 6
06.12.2018 20:00:00 - - - - - - -
06.12.2018 19:00:00 - - - - - - -
06.12.2018 18:00:00 24,5 19,1 0 0 N 1018,9 10
06.12.2018 17:00:00 - - - - - - -
06.12.2018 16:00:00 - - - - - - -
06.12.2018 15:00:00 27,4 18,1 7 4 N 1019,0 10
06.12.2018 14:00:00 - - - - - - -
06.12.2018 13:00:00 - - - - - - -
06.12.2018 12:00:00 22,4 18,7 0 0 N 1021,8 10
06.12.2018 11:00:00 - - - - - - -
06.12.2018 10:00:00 - - - - - - -
06.12.2018 09:00:00 16,4 16,2 0 0 N 1023,7 10
06.12.2018 08:00:00 - - - - - - -
06.12.2018 07:00:00 - - - - - - -
06.12.2018 06:00:00 14,6 14,4 0 0 N 1021,7 6
06.12.2018 05:00:00 - - - - - - -
06.12.2018 04:00:00 - - - - - - -
06.12.2018 03:00:00 15,2 15,0 0 0 N 1022,6 6
06.12.2018 02:00:00 - - - - - - -
06.12.2018 01:00:00 - - - - - - -
06.12.2018 00:00:00 16,0 15,8 0 0 N 1025,6 6
05.12.2018 23:00:00 - - - - - - -
05.12.2018 22:00:00 - - - - - - -
05.12.2018 21:00:00 16,0 15,8 0 0 N 1027,1 6
05.12.2018 20:00:00 - - - - - - -
05.12.2018 19:00:00 - - - - - - -
05.12.2018 18:00:00 - - - - - - -
05.12.2018 17:00:00 - - - - - - -
05.12.2018 16:00:00 - - - - - - -
05.12.2018 15:00:00 - - - - - - -
05.12.2018 14:00:00 - - - - - - -
05.12.2018 13:00:00 - - - - - - -
05.12.2018 12:00:00 16,6 16,4 0 0 N 1028,7 8
05.12.2018 11:00:00 - - - - - - -
05.12.2018 10:00:00 - - - - - - -
05.12.2018 09:00:00 15,6 15,4 0 0 N 1029,2 8
05.12.2018 08:00:00 - - - - - - -
05.12.2018 07:00:00 - - - - - - -
05.12.2018 06:00:00 15,2 15,0 0 0 N 1027,4 6
05.12.2018 05:00:00 - - - - - - -
05.12.2018 04:00:00 - - - - - - -
05.12.2018 03:00:00 15,2 15,0 0 0 N 1026,6 6
05.12.2018 02:00:00 - - - - - - -
05.12.2018 01:00:00 - - - - - - -
05.12.2018 00:00:00 15,4 15,2 0 0 N 1026,9 6
04.12.2018 23:00:00 - - - - - - -
04.12.2018 22:00:00 - - - - - - -
04.12.2018 21:00:00 - - 0 0 N 1025,9 6
04.12.2018 20:00:00 - - - - - - -
04.12.2018 19:00:00 - - - - - - -
04.12.2018 18:00:00 - - - - - - -
04.12.2018 17:00:00 - - - - - - -
04.12.2018 16:00:00 - - - - - - -
04.12.2018 15:00:00 - - - - - - -
04.12.2018 14:00:00 - - - - - - -
04.12.2018 13:00:00 - - - - - - -
04.12.2018 12:00:00 17,8 14,3 11 6 N 1026,4 10
04.12.2018 11:00:00 - - - - - - -
04.12.2018 10:00:00 - - - - - - -
04.12.2018 09:00:00 15,8 15,5 0 0 N 1026,1 8
04.12.2018 08:00:00 - - - - - - -
04.12.2018 07:00:00 - - - - - - -
04.12.2018 06:00:00 - - - - - - -
04.12.2018 05:00:00 - - - - - - -
04.12.2018 04:00:00 - - - - - - -
04.12.2018 03:00:00 - - - - - - -
04.12.2018 02:00:00 - - - - - - -
04.12.2018 01:00:00 - - - - - - -
04.12.2018 00:00:00 - - - - - - -
03.12.2018 23:00:00 - - - - - - -
03.12.2018 22:00:00 - - - - - - -
03.12.2018 21:00:00 - - - - - - -

tt = temperature
td = dewpoint
ff = wind speed
dd = wind direction
ppp = reduced air pressure
vv = visibility

Next stations